Temp
34 33 34 35 34 34 34 35 34 34 33 33 34 34 34 33 33 32 32 31 33 34 32 32 34 34 35 36 38 38 36 35 35 34 34 34 34 34 33 32 32 33 34 34 35 37 37 36 36 35 35 35 35 36 36 36 35 35 35 37 36 37
36 37 36 34 35 35 34 34 33 34 35 34 33 32 31 32 32 33 33 33 34 33 30 30 30 30 30 31 32 36 35 36 36 35 34 34 34 33 33 33 32 32 31 32 33 34 36 37 38 38 36 36 36 36 35 36 36 35 35 36 36 36
33 34 34 35 34 34 33 32 33 33 32 32 32 31 31 32 32 33 34 35 35 33 30 31 30 31 29 31 29 32 31 32 34 34 32 34 35 33 33 32 32 33 33 33 33 32 32 33 35 36 37 36 36 36 36 36 35 34 34 34 35 35
32 34 34 34 34 34 34 33 30 31 31 30 30 30 30 30 31 30 32 33 33 31 28 30 29 29 28 29 28 29 28 28 30 30 30 31 32 32 31 32 32 32 31 31 32 33 33 33 32 33 35 35 35 36 37 37 36 35 35 34 34 35
33 33 33 32 32 32 32 32 31 31 31 30 30 29 31 30 31 30 29 29 29 29 28 29 29 29 29 29 29 29 28 28 28 28 28 29 30 30 30 30 30 31 30 31 31 31 32 32 32 34 34 34 34 35 35 36 35 36 36 36 36 36
32 31 31 32 31 31 32 31 30 30 31 31 29 31 31 31 31 31 30 29 29 29 28 28 28 28 28 28 28 27 28 27 28 28 28 29 28 29 30 29 30 30 29 30 30 30 31 31 31 32 32 33 34 34 34 35 35 35 35 35 35 36
31 31 31 31 30 31 31 31 31 31 32 30 31 32 31 32 29 30 29 29 29 28 28 28 28 28 28 28 29 29 29 27 28 27 27 28 29 29 29 30 29 29 29 30 30 30 30 31 31 31 31 32 32 33 34 34 34 34 35 35 34 35
30 30 30 30 30 31 32 31 31 31 31 32 30 31 31 32 29 28 28 28 28 28 27 27 27 28 27 27 28 29 29 29 28 29 28 27 28 29 29 29 29 29 29 29 29 29 30 30 30 31 31 31 31 31 32 32 33 34 35 34 34 34
30 31 30 30 30 30 30 30 31 30 30 32 30 30 29 31 29 28 28 27 27 28 30 29 29 29 29 28 29 29 28 28 28 28 28 28 27 28 29 30 30 30 29 29 29 29 30 30 30 30 31 31 31 31 31 31 31 32 33 34 35 34
30 30 31 29 30 30 30 30 30 31 29 30 30 30 29 30 29 29 29 28 28 28 29 29 29 30 30 30 30 30 29 29 28 28 28 27 27 28 28 28 29 29 29 30 30 30 29 29 29 30 30 30 30 30 30 31 31 31 31 32 32 33
30 31 30 30 29 30 30 30 29 29 29 31 30 29 30 28 30 30 29 28 28 29 28 29 29 29 29 29 30 30 30 30 29 28 28 27 27 28 27 27 28 28 28 28 29 29 29 29 30 30 31 30 30 31 30 30 30 31 31 31 31 32
30 30 29 29 29 30 29 29 29 29 31 31 29 30 28 29 30 30 28 28 27 27 27 28 28 29 29 29 30 30 30 29 29 29 29 28 27 26 26 26 26 26 26 26 27 28 29 29 30 32 34 35 33 32 32 32 31 31 31 31 31 31
30 29 29 30 30 29 30 31 30 30 29 29 29 28 27 29 30 29 27 28 27 28 28 29 29 29 29 29 29 28 28 28 28 28 27 27 27 27 27 27 26 26 26 26 26 26 27 28 29 32 34 35 36 34 32 31 31 32 32 31 31 31
30 30 30 31 30 29 29 30 30 28 29 28 28 27 27 28 27 26 26 25 27 27 27 28 28 27 28 27 26 26 26 26 26 26 26 26 26 27 26 26 26 26 26 26 26 25 26 26 30 32 33 34 34 35 32 31 31 31 32 32 31 32
29 30 30 29 30 30 29 29 30 30 27 29 27 26 27 26 26 25 26 26 25 26 26 26 25 25 25 25 25 24 24 24 24 24 24 24 25 24 24 25 25 25 25 25 24 24 25 25 29 31 32 32 33 33 33 30 30 30 31 31 31 32
28 29 30 30 29 30 29 30 30 29 28 27 26 27 26 25 25 25 25 25 25 25 25 24 22 23 23 23 22 22 22 22 22 23 23 23 23 22 22 23 22 23 23 23 23 23 24 24 27 30 30 31 31 32 32 29 29 29 30 30 31 31
32 31 31 32 31 28 28 28 27 27 27 26 26 25 24 24 23 23 23 24 24 23 22 22 21 20 20 20 20 20 20 20 20 20 20 21 20 20 20 20 20 20 21 21 21 21 21 23 27 28 29 30 31 31 31 27 27 28 28 29 30 30
28 29 30 30 30 29 27 25 25 25 24 24 23 23 22 21 21 22 22 22 21 20 21 19 18 18 17 18 17 17 17 17 17 17 18 18 18 18 18 18 18 18 18 18 18 18 18 20 25 26 27 28 29 30 26 25 25 25 25 26 27 28
28 29 28 26 25 25 24 24 23 23 22 21 21 19 19 19 19 20 20 19 18 18 17 17 16 15 14 14 14 13 13 13 13 13 14 13 13 13 13 14 14 15 15 15 16 15 16 17 21 24 26 26 28 26 23 23 23 23 23 24 25 26
27 27 26 24 23 23 22 22 21 20 19 18 18 17 17 16 17 17 16 16 15 15 15 14 12 11 11 10 9 9 10 11 11 10 11 10 10 10 11 11 11 12 12 12 12 13 13 14 18 22 23 24 24 24 20 20 20 20 21 21 22 23
26 25 24 23 21 21 21 19 18 17 16 16 16 15 14 15 15 14 13 14 14 13 11 11 10 9 8 7 7 7 7 7 7 8 9 8 8 8 9 9 8 8 9 10 11 14 12 10 13 17 19 20 21 20 18 18 18 18 19 20 20 22
24 23 21 20 20 19 17 16 16 13 14 14 14 12 12 13 12 13 12 12 11 10 8 8 7 7 6 6 6 6 6 7 6 6 6 6 6 6 6 7 6 6 6 8 8 8 9 8 9 12 18 19 20 21 18 17 16 16 17 18 19 19
23 21 20 20 19 17 15 14 12 12 12 12 11 10 11 11 11 10 9 9 8 6 6 5 5 4 5 5 5 5 5 5 5 5 4 4 4 4 4 4 4 4 4 5 6 7 7 8 9 10 17 18 20 20 19 15 15 16 16 16 16 17
20 18 17 17 16 15 13 11 9 9 10 8 8 8 10 9 9 8 6 5 5 4 3 3 3 4 4 4 4 3 3 4 4 4 3 4 3 2 2 2 3 3 3 4 5 6 6 9 12 10 15 18 19 20 21 17 16 17 16 15 15 17
17 16 15 15 13 14 13 7 6 6 6 6 8 9 8 7 7 6 4 3 3 2 2 2 2 2 3 2 3 2 2 2 2 2 2 2 1 1 1 1 2 2 2 3 4 5 6 7 9 14 12 16 18 19 20 20 19 21 18 16 14 15
15 14 13 13 11 10 8 5 4 4 4 5 8 8 5 4 4 2 2 1 1 1 1 1 1 1 1 1 2 1 1 1 1 1 1 1 1 0 0 1 1 1 1 1 2 4 6 7 7 11 15 14 18 19 20 21 21 21 17 16 15 15
11 10 10 10 8 9 5 5 2 2 2 5 5 4 3 2 1 0 -0 -0 -0 -0 0 0 0 0 0 0 1 -0 0 0 0 -0 1 1 1 0 -1 -0 0 -0 -0 0 1 2 4 5 6 7 11 16 17 19 19 20 21 20 21 16 15 15
6 6 6 8 7 6 6 4 2 -1 3 5 3 3 2 0 -1 -1 -1 -1 -0 -0 0 -0 -0 0 0 0 0 -0 1 0 0 -0 -0 0 -0 -0 -1 -1 -1 -1 -1 -0 1 1 3 4 5 6 7 10 13 14 16 18 19 19 20 20 17 20
5 5 4 3 5 4 4 1 0 2 3 1 3 2 -0 -3 -2 -1 -1 -1 -1 -0 -0 -1 -1 0 1 0 1 1 1 1 0 -0 -1 -1 -1 -1 -1 -1 -1 -0 0 0 2 3 4 4 5 6 7 8 8 8 9 11 11 16 18 15 13 16
5 3 2 3 5 3 1 -1 -1 -0 -1 -0 1 -2 -3 -3 -2 -2 -2 -2 -1 -1 -1 -1 1 1 -0 -0 -1 -1 -0 -0 -0 -1 -1 -1 -1 -1 -1 -0 1 1 2 3 4 5 6 7 8 9 9 9 10 10 11 11 11 10 11 11 12 12
2 2 1 1 2 -0 -2 -4 -2 -2 -1 1 -1 -3 -4 -3 -2 -1 -2 -2 -1 -2 -0 -1 -1 -1 -1 -1 -1 -1 -0 -1 -1 -1 0 3 4 3 3 3 5 7 8 9 8 8 7 8 9 11 16 16 19 17 16 15 14 14 12 14 17 16
1 -0 -1 0 0 -2 -4 -4 -2 -2 0 -2 -3 -4 -5 -3 -2 -3 -3 -2 -2 -2 -1 -1 -1 -1 -1 -1 -2 -2 -1 5 10 9 6 5 11 15 16 16 10 11 12 11 12 12 10 9 12 19 22 21 21 22 22 22 22 22 21 22 24 23
0 -1 -3 -2 -2 -4 -4 -3 -2 -3 -3 -2 -1 -3 -4 -4 -3 -3 -2 -2 -2 -1 -1 -1 -2 -1 -1 -1 -1 -1 -2 -1 1 10 13 13 14 15 16 17 18 18 18 14 11 14 19 20 20 20 20 21 21 22 22 22 23 24 24 24 20 18
-2 -2 -3 -3 -4 -5 -5 -4 -3 -3 -3 -3 -4 -4 -5 -5 -4 -3 -3 -2 -2 -1 -1 -1 -1 -1 -2 -1 -1 -1 -2 -2 -2 -0 8 13 13 14 15 16 17 17 18 18 17 15 13 17 20 20 19 21 22 23 23 23 23 24 24 25 25 18
-1 -2 -4 -5 -6 -6 -5 -5 -3 -3 -4 -3 -4 -5 -5 -4 -4 -3 -3 -2 -2 -1 -1 -1 -2 -2 -2 -2 -2 -2 -1 -2 -2 -3 -2 3 11 14 14 15 16 17 17 18 18 19 18 18 19 20 20 21 21 22 22 23 23 23 24 24 20 16
-3 -3 -4 -7 -7 -6 -6 -5 -4 -4 -4 -5 -5 -4 -5 -4 -4 -4 -3 -2 -2 -2 -2 -2 -2 -2 -2 -1 -1 -2 -1 -1 -1 -1 -1 -1 0 3 8 12 14 15 16 16 17 18 19 19 19 20 20 20 21 22 23 23 20 23 25 22 17 16
-5 -6 -5 -3 -4 -5 -6 -5 -3 -4 -4 -6 -6 -6 -5 -4 -3 -3 -2 -0 -0 -2 -2 -2 -1 -2 -2 -1 -1 -1 -1 -1 0 1 0 -0 -1 -1 -0 1 4 10 14 12 14 16 19 19 20 20 20 20 21 22 23 23 17 15 16 16 16 16
-6 -7 -6 -6 -7 -7 -6 -4 -3 -3 -4 -7 -7 -7 -5 -4 -3 -3 -3 -2 -1 -2 -2 -2 -2 -2 -2 -2 -1 0 1 1 1 1 0 1 1 1 1 2 3 5 10 15 16 17 17 18 19 20 21 21 22 22 22 15 14 14 14 15 16 16
MSLP
1023.48 1023.52 1023.44 1023.40 1023.44 1023.56 1023.76 1023.92 1024.00 1023.96 1023.96 1024.12 1024.28 1024.36 1024.52 1024.52 1024.36 1024.04 1023.76 1023.56 1023.44 1023.44 1023.56 1023.68 1023.72 1023.72 1023.68 1023.60 1023.52 1023.40 1023.32 1023.24 1023.20 1023.08 1022.92 1022.68 1022.60 1022.48 1022.44 1022.44 1022.36 1022.24 1022.04 1021.80 1021.48 1021.12 1020.80 1020.56 1020.32 1020.12 1019.92 1019.76 1019.56 1019.32 1019.16 1018.96 1018.84 1018.72 1018.56 1018.36 1018.28 1018.08
1023.20 1023.20 1023.20 1023.20 1023.28 1023.48 1023.68 1023.80 1023.88 1023.92 1024.04 1024.16 1024.32 1024.44 1024.44 1024.20 1023.92 1023.68 1023.52 1023.60 1023.64 1023.56 1023.64 1023.72 1023.84 1023.88 1023.84 1023.84 1023.84 1023.80 1023.80 1023.76 1023.64 1023.44 1023.16 1023.00 1022.80 1022.52 1022.40 1022.32 1022.24 1022.16 1022.08 1021.92 1021.72 1021.40 1021.08 1020.76 1020.44 1020.20 1020.00 1019.84 1019.64 1019.44 1019.24 1018.96 1018.84 1018.68 1018.52 1018.28 1018.20 1018.12
1023.00 1022.96 1023.08 1023.16 1023.28 1023.48 1023.56 1023.68 1023.84 1024.04 1024.12 1024.24 1024.36 1024.36 1024.24 1024.08 1023.92 1023.72 1023.64 1023.60 1023.64 1023.68 1023.68 1023.76 1023.88 1023.88 1023.96 1023.84 1023.92 1023.88 1023.88 1023.84 1023.80 1023.68 1023.68 1023.44 1023.20 1023.20 1022.92 1022.72 1022.56 1022.28 1021.96 1021.68 1021.40 1021.32 1021.16 1020.96 1020.64 1020.36 1020.12 1019.84 1019.56 1019.28 1019.12 1018.88 1018.72 1018.52 1018.32 1018.20 1017.96 1017.96
1022.80 1022.84 1023.08 1023.20 1023.24 1023.28 1023.40 1023.64 1023.80 1023.96 1024.04 1024.16 1024.24 1024.28 1024.32 1024.16 1024.04 1024.00 1023.92 1023.84 1023.84 1023.88 1023.96 1023.92 1024.04 1024.12 1024.04 1024.04 1024.00 1023.96 1023.92 1023.88 1023.76 1023.68 1023.56 1023.40 1023.28 1023.20 1023.04 1022.80 1022.64 1022.40 1022.20 1022.00 1021.68 1021.32 1021.00 1020.76 1020.60 1020.44 1020.28 1020.04 1019.72 1019.40 1019.12 1018.84 1018.60 1018.40 1018.20 1018.08 1017.92 1017.76
1022.64 1022.80 1023.00 1023.16 1023.16 1023.24 1023.36 1023.52 1023.56 1023.72 1023.84 1023.96 1024.08 1024.08 1024.12 1024.12 1024.08 1024.08 1024.08 1024.00 1023.96 1024.00 1024.04 1024.08 1024.08 1024.12 1024.12 1024.08 1024.00 1023.96 1023.92 1023.88 1023.76 1023.68 1023.60 1023.44 1023.32 1023.16 1022.96 1022.72 1022.48 1022.24 1022.08 1021.88 1021.68 1021.48 1021.28 1021.04 1020.80 1020.44 1020.20 1020.00 1019.76 1019.48 1019.16 1018.96 1018.76 1018.60 1018.32 1018.04 1017.76 1017.56
1022.60 1022.92 1023.08 1023.12 1023.20 1023.28 1023.32 1023.40 1023.56 1023.64 1023.72 1023.76 1023.84 1023.88 1023.96 1024.00 1024.08 1024.08 1024.08 1024.12 1024.04 1024.12 1024.12 1024.08 1024.20 1024.16 1024.16 1024.12 1024.08 1024.00 1023.84 1023.76 1023.64 1023.56 1023.44 1023.28 1023.20 1023.04 1022.84 1022.68 1022.40 1022.16 1021.96 1021.80 1021.56 1021.44 1021.28 1021.08 1020.88 1020.60 1020.28 1019.92 1019.52 1019.16 1018.92 1018.72 1018.56 1018.36 1018.16 1018.00 1017.76 1017.52
1022.64 1022.76 1022.84 1023.00 1023.12 1023.16 1023.24 1023.24 1023.32 1023.44 1023.56 1023.64 1023.72 1023.76 1023.88 1023.92 1024.12 1024.08 1024.16 1024.24 1024.20 1024.20 1024.24 1024.20 1024.24 1024.20 1024.12 1024.04 1023.96 1023.84 1023.72 1023.68 1023.60 1023.52 1023.40 1023.24 1023.08 1022.96 1022.80 1022.56 1022.44 1022.16 1021.96 1021.76 1021.52 1021.32 1021.16 1021.00 1020.80 1020.60 1020.28 1020.00 1019.72 1019.40 1019.04 1018.60 1018.24 1018.00 1017.76 1017.56 1017.40 1017.20
1022.64 1022.84 1022.96 1023.00 1022.96 1022.96 1023.08 1023.16 1023.20 1023.32 1023.40 1023.44 1023.64 1023.68 1023.76 1023.80 1023.92 1023.92 1023.96 1024.04 1024.04 1024.12 1024.20 1024.20 1024.20 1024.12 1024.08 1024.00 1023.92 1023.80 1023.64 1023.52 1023.40 1023.24 1023.16 1023.08 1022.88 1022.68 1022.60 1022.48 1022.32 1022.24 1021.96 1021.76 1021.56 1021.32 1021.08 1020.84 1020.60 1020.36 1020.08 1019.80 1019.56 1019.32 1019.04 1018.80 1018.52 1018.08 1017.68 1017.36 1017.12 1016.96
1022.64 1022.68 1022.84 1022.84 1022.88 1022.88 1022.92 1023.00 1023.08 1023.20 1023.28 1023.36 1023.48 1023.56 1023.60 1023.64 1023.72 1023.84 1023.84 1023.88 1023.84 1023.80 1023.76 1023.84 1023.84 1023.88 1023.80 1023.76 1023.68 1023.60 1023.48 1023.32 1023.20 1023.08 1022.92 1022.80 1022.76 1022.60 1022.40 1022.24 1022.12 1021.88 1021.80 1021.60 1021.44 1021.28 1021.04 1020.80 1020.56 1020.24 1019.92 1019.56 1019.28 1019.00 1018.72 1018.48 1018.20 1017.92 1017.64 1017.20 1016.84 1016.56
1022.40 1022.52 1022.52 1022.76 1022.76 1022.76 1022.80 1022.84 1022.88 1022.92 1023.04 1023.12 1023.28 1023.44 1023.44 1023.52 1023.56 1023.52 1023.52 1023.60 1023.56 1023.64 1023.68 1023.76 1023.80 1023.68 1023.60 1023.52 1023.44 1023.32 1023.24 1023.16 1023.04 1022.96 1022.84 1022.76 1022.64 1022.48 1022.32 1022.16 1021.96 1021.72 1021.64 1021.44 1021.20 1021.00 1020.84 1020.64 1020.32 1020.04 1019.76 1019.48 1019.16 1018.80 1018.44 1018.16 1017.80 1017.52 1017.16 1016.84 1016.48 1016.20
1022.12 1022.16 1022.32 1022.44 1022.48 1022.48 1022.44 1022.60 1022.68 1022.80 1022.84 1022.84 1022.88 1023.08 1022.92 1023.12 1023.16 1023.16 1023.24 1023.36 1023.40 1023.48 1023.64 1023.64 1023.68 1023.64 1023.56 1023.48 1023.36 1023.20 1023.04 1022.96 1022.88 1022.80 1022.68 1022.64 1022.56 1022.40 1022.24 1022.08 1021.88 1021.64 1021.36 1021.16 1021.04 1020.80 1020.60 1020.36 1020.00 1019.64 1019.36 1019.12 1018.72 1018.44 1018.12 1017.80 1017.48 1017.16 1016.80 1016.48 1016.16 1015.92
1021.76 1021.84 1021.96 1022.04 1022.08 1022.08 1022.12 1022.24 1022.28 1022.32 1022.36 1022.36 1022.44 1022.64 1022.68 1023.00 1022.92 1023.08 1023.20 1023.32 1023.44 1023.60 1023.68 1023.72 1023.68 1023.60 1023.48 1023.40 1023.28 1023.16 1023.08 1022.92 1022.76 1022.64 1022.52 1022.40 1022.36 1022.24 1022.12 1021.92 1021.68 1021.56 1021.32 1021.00 1020.72 1020.52 1020.28 1019.88 1019.52 1019.08 1018.76 1018.52 1018.16 1017.76 1017.44 1017.12 1016.80 1016.56 1016.28 1016.00 1015.68 1015.44
1021.32 1021.52 1021.64 1021.60 1021.64 1021.72 1021.80 1021.80 1021.92 1022.04 1022.20 1022.24 1022.32 1022.44 1022.64 1022.92 1022.84 1022.96 1023.16 1023.24 1023.48 1023.64 1023.68 1023.68 1023.64 1023.60 1023.52 1023.40 1023.40 1023.24 1023.08 1022.92 1022.72 1022.60 1022.44 1022.28 1022.12 1022.00 1021.88 1021.68 1021.44 1021.24 1021.04 1020.80 1020.52 1020.12 1019.84 1019.48 1019.00 1018.56 1018.24 1017.92 1017.56 1017.28 1016.88 1016.52 1016.08 1015.80 1015.52 1015.32 1015.00 1014.60
1021.44 1021.52 1021.44 1021.36 1021.40 1021.48 1021.64 1021.72 1021.80 1022.08 1022.12 1022.48 1022.60 1022.80 1023.08 1023.04 1023.20 1023.40 1023.52 1023.68 1023.76 1023.80 1023.84 1023.84 1023.80 1023.80 1023.72 1023.68 1023.56 1023.44 1023.32 1023.16 1023.00 1022.80 1022.60 1022.40 1022.08 1021.76 1021.56 1021.36 1021.16 1020.88 1020.64 1020.48 1020.20 1019.88 1019.44 1019.00 1018.56 1018.12 1017.84 1017.52 1017.20 1016.92 1016.56 1016.16 1015.72 1015.28 1014.92 1014.64 1014.32 1013.96
1021.60 1021.52 1021.36 1021.36 1021.28 1021.32 1021.60 1022.20 1022.36 1022.40 1022.56 1022.72 1023.12 1023.24 1023.20 1023.44 1023.56 1023.68 1023.76 1023.92 1024.04 1024.04 1024.04 1024.08 1024.08 1024.04 1023.96 1023.92 1023.84 1023.76 1023.60 1023.44 1023.24 1023.00 1022.72 1022.44 1022.12 1021.88 1021.60 1021.16 1020.92 1020.60 1020.32 1020.16 1019.84 1019.44 1018.96 1018.48 1017.96 1017.64 1017.52 1017.24 1016.92 1016.64 1016.40 1016.00 1015.56 1015.00 1014.48 1014.12 1013.76 1013.44
1021.48 1021.56 1021.96 1022.36 1022.64 1022.64 1022.56 1022.64 1022.60 1022.96 1023.24 1023.28 1023.32 1023.40 1023.68 1023.76 1023.92 1024.08 1024.16 1024.20 1024.20 1024.28 1024.28 1024.32 1024.40 1024.32 1024.28 1024.28 1024.24 1024.08 1023.88 1023.72 1023.44 1023.12 1022.92 1022.64 1022.28 1021.92 1021.56 1021.16 1020.84 1020.48 1020.16 1019.84 1019.52 1019.12 1018.60 1018.08 1017.56 1017.32 1017.16 1016.92 1016.68 1016.40 1016.16 1015.76 1015.36 1014.80 1014.24 1013.72 1013.32 1012.96
1021.40 1021.76 1022.08 1022.32 1022.52 1022.72 1022.76 1023.12 1023.32 1023.28 1023.44 1023.64 1023.68 1024.08 1024.16 1024.36 1024.48 1024.48 1024.52 1024.52 1024.52 1024.56 1024.60 1024.68 1024.72 1024.72 1024.68 1024.64 1024.56 1024.40 1024.20 1024.00 1023.72 1023.44 1023.20 1022.96 1022.52 1022.12 1021.72 1021.28 1020.88 1020.44 1020.04 1019.68 1019.40 1019.00 1018.40 1017.68 1017.28 1017.12 1016.96 1016.72 1016.48 1016.16 1015.88 1015.48 1015.04 1014.52 1013.96 1013.44 1013.00 1012.56
1021.68 1021.96 1022.52 1022.84 1022.68 1023.16 1023.56 1023.92 1024.00 1023.76 1024.12 1024.32 1024.44 1024.64 1024.76 1024.84 1024.72 1024.72 1024.80 1024.84 1024.92 1025.00 1025.08 1025.20 1025.20 1025.16 1025.12 1025.00 1024.84 1024.72 1024.52 1024.28 1024.08 1023.80 1023.48 1023.24 1022.76 1022.40 1022.04 1021.44 1021.24 1020.64 1020.08 1019.68 1019.44 1019.12 1018.40 1017.56 1017.16 1017.00 1016.88 1016.64 1016.32 1016.00 1015.64 1015.20 1014.72 1014.16 1013.64 1013.08 1012.64 1012.24
1022.12 1022.40 1022.64 1023.00 1023.36 1023.60 1024.24 1024.60 1024.48 1024.48 1024.52 1024.60 1024.88 1024.92 1024.96 1024.96 1024.96 1025.08 1025.16 1025.28 1025.36 1025.48 1025.64 1025.72 1025.72 1025.64 1025.56 1025.44 1025.28 1025.08 1024.84 1024.60 1024.28 1024.08 1024.04 1023.72 1023.16 1022.76 1022.32 1021.88 1021.36 1020.76 1020.32 1019.76 1019.48 1019.28 1018.60 1017.72 1017.12 1017.00 1016.76 1016.44 1016.08 1015.72 1015.32 1014.84 1014.24 1013.72 1013.20 1012.60 1012.20 1011.88
1022.36 1022.52 1022.56 1023.20 1024.00 1024.60 1024.76 1024.80 1024.84 1024.84 1024.84 1025.04 1025.20 1025.16 1025.20 1025.32 1025.44 1025.52 1025.60 1025.76 1025.88 1026.04 1026.12 1026.20 1026.24 1026.16 1026.00 1025.88 1025.76 1025.44 1025.08 1024.88 1024.68 1024.44 1024.24 1023.92 1023.28 1022.68 1022.24 1021.92 1021.36 1020.76 1020.48 1020.12 1019.68 1019.44 1018.88 1017.84 1017.20 1017.12 1016.84 1016.56 1016.20 1015.92 1015.36 1014.76 1014.16 1013.48 1012.96 1012.32 1011.96 1011.72
1022.36 1022.80 1023.16 1023.56 1024.12 1024.80 1024.96 1025.04 1025.08 1025.08 1025.24 1025.48 1025.52 1025.60 1025.68 1025.76 1025.84 1025.96 1026.16 1026.28 1026.40 1026.48 1026.60 1026.60 1026.56 1026.52 1026.36 1026.16 1025.84 1025.64 1025.32 1025.00 1024.72 1024.28 1024.04 1023.68 1023.28 1022.60 1022.12 1021.84 1021.40 1020.64 1020.16 1020.08 1019.84 1019.36 1019.08 1018.40 1017.68 1017.40 1017.20 1016.76 1016.20 1015.80 1015.32 1014.68 1013.92 1013.16 1012.44 1012.04 1011.52 1011.20
1022.68 1022.92 1023.40 1024.04 1024.76 1025.08 1025.20 1025.28 1025.36 1025.56 1025.76 1025.92 1025.96 1026.04 1026.12 1026.16 1026.32 1026.52 1026.68 1026.72 1026.76 1026.80 1026.84 1026.80 1026.76 1026.60 1026.52 1026.20 1025.80 1025.60 1025.36 1024.92 1024.52 1024.16 1023.88 1023.36 1023.08 1022.48 1021.88 1021.56 1021.16 1020.48 1019.76 1019.80 1019.76 1019.32 1019.04 1018.60 1017.68 1017.36 1017.00 1016.36 1015.80 1015.36 1014.96 1014.36 1013.76 1012.96 1012.28 1011.76 1011.24 1010.48
1022.88 1023.48 1024.28 1024.84 1025.00 1025.20 1025.44 1025.56 1025.68 1025.92 1026.20 1026.32 1026.36 1026.36 1026.44 1026.60 1026.80 1026.88 1026.96 1027.00 1026.96 1026.92 1026.88 1026.84 1026.76 1026.52 1026.32 1026.24 1025.84 1025.36 1025.04 1024.80 1024.44 1023.92 1023.64 1023.16 1022.60 1022.16 1021.60 1021.20 1020.68 1020.16 1019.48 1019.40 1019.28 1018.92 1018.48 1018.28 1017.52 1016.80 1016.68 1015.96 1015.44 1014.96 1014.56 1014.04 1013.48 1012.92 1012.40 1011.64 1011.00 1010.44
1023.80 1024.32 1024.72 1025.00 1025.20 1025.44 1025.72 1025.92 1026.12 1026.32 1026.52 1026.68 1026.60 1026.60 1026.76 1026.96 1027.04 1027.08 1027.08 1027.04 1027.00 1026.88 1026.80 1026.68 1026.60 1026.48 1026.20 1025.84 1025.60 1025.20 1024.72 1024.44 1024.16 1023.76 1023.36 1022.84 1022.32 1021.76 1021.16 1020.76 1020.24 1019.60 1019.00 1018.76 1018.68 1018.40 1018.00 1017.64 1017.32 1016.60 1016.08 1015.72 1015.04 1014.48 1014.00 1013.48 1012.88 1012.56 1011.96 1010.96 1010.08 1009.44
1023.96 1024.44 1024.88 1025.16 1025.48 1025.72 1026.00 1026.24 1026.44 1026.68 1026.88 1026.88 1026.76 1026.88 1027.04 1027.04 1027.08 1027.08 1027.04 1026.96 1026.76 1026.64 1026.56 1026.48 1026.44 1026.20 1025.96 1025.60 1025.24 1024.92 1024.40 1023.96 1023.68 1023.24 1023.04 1022.52 1021.92 1021.40 1020.84 1020.28 1019.76 1019.16 1018.48 1018.12 1017.96 1017.88 1017.48 1017.12 1016.72 1016.32 1015.72 1015.12 1014.56 1013.96 1013.44 1012.92 1012.32 1011.72 1011.40 1010.68 1009.56 1008.92
1024.64 1024.88 1025.20 1025.44 1025.72 1025.96 1026.24 1026.44 1026.72 1026.92 1027.00 1026.92 1026.92 1027.04 1027.04 1027.08 1027.04 1027.00 1026.92 1026.68 1026.48 1026.40 1026.36 1026.24 1026.04 1025.88 1025.60 1025.28 1024.88 1024.52 1024.16 1023.64 1023.28 1022.88 1022.60 1022.12 1021.64 1021.00 1020.36 1019.84 1019.36 1018.80 1018.28 1017.68 1017.20 1017.12 1016.88 1016.44 1016.08 1015.56 1015.16 1014.60 1014.00 1013.40 1012.84 1012.28 1011.72 1011.32 1010.92 1010.44 1009.48 1008.68
1024.36 1025.00 1025.32 1025.60 1025.84 1026.12 1026.44 1026.68 1026.88 1027.00 1027.00 1026.88 1026.96 1027.04 1027.00 1026.96 1026.88 1026.84 1026.60 1026.36 1026.28 1026.24 1026.04 1025.88 1025.68 1025.40 1025.12 1024.84 1024.52 1024.16 1023.72 1023.20 1022.92 1022.60 1022.04 1021.76 1021.20 1020.76 1020.20 1019.44 1019.08 1018.64 1017.96 1017.40 1016.88 1016.32 1016.04 1015.72 1015.32 1014.84 1014.40 1013.88 1013.24 1012.72 1012.20 1011.64 1011.12 1010.64 1010.20 1009.64 1008.96 1008.52
1024.76 1025.04 1025.36 1025.80 1026.00 1026.28 1026.48 1026.76 1026.88 1026.92 1026.80 1026.84 1026.92 1026.88 1026.84 1026.76 1026.64 1026.44 1026.20 1026.12 1026.04 1025.88 1025.64 1025.40 1025.08 1024.88 1024.56 1024.28 1024.12 1023.84 1023.40 1023.04 1022.60 1022.32 1021.72 1021.40 1020.88 1020.44 1019.92 1019.24 1018.80 1018.24 1017.64 1017.00 1016.28 1015.72 1015.08 1014.72 1014.44 1013.92 1013.48 1013.12 1012.60 1012.08 1011.48 1010.92 1010.40 1009.88 1009.36 1008.76 1008.04 1007.40
1024.20 1024.68 1025.28 1025.68 1026.04 1026.32 1026.60 1026.76 1026.84 1026.84 1026.76 1026.84 1026.76 1026.68 1026.64 1026.64 1026.44 1026.20 1026.00 1025.88 1025.72 1025.48 1025.28 1025.00 1024.64 1024.20 1023.96 1023.84 1023.56 1023.32 1023.04 1022.68 1022.40 1022.04 1021.56 1021.04 1020.56 1020.04 1019.56 1018.92 1018.40 1017.72 1017.00 1016.24 1015.40 1014.60 1014.08 1013.64 1013.32 1012.88 1012.32 1011.96 1011.64 1011.08 1010.56 1010.16 1009.76 1009.20 1008.68 1008.20 1007.60 1006.96
1024.20 1024.64 1025.12 1025.52 1026.00 1026.36 1026.60 1026.68 1026.72 1026.64 1026.68 1026.64 1026.56 1026.52 1026.52 1026.40 1026.20 1025.96 1025.76 1025.64 1025.48 1025.20 1024.88 1024.60 1024.20 1023.92 1023.56 1023.36 1023.20 1022.84 1022.52 1022.32 1022.12 1021.72 1021.24 1020.68 1020.12 1019.64 1018.92 1018.44 1017.76 1017.04 1016.20 1015.32 1014.40 1013.56 1012.84 1012.40 1011.96 1011.60 1011.20 1010.64 1010.28 1009.64 1009.36 1009.04 1008.64 1008.32 1007.96 1007.40 1006.80 1006.16
1024.40 1024.80 1025.20 1025.56 1026.04 1026.32 1026.52 1026.56 1026.48 1026.48 1026.44 1026.36 1026.32 1026.32 1026.24 1026.04 1025.80 1025.72 1025.60 1025.36 1025.12 1024.84 1024.52 1024.28 1023.96 1023.64 1023.36 1022.88 1022.64 1022.56 1022.44 1022.04 1021.48 1021.08 1020.36 1019.76 1019.32 1018.88 1018.24 1017.32 1016.40 1015.60 1014.80 1014.24 1013.56 1012.80 1011.76 1011.36 1011.00 1010.48 1010.12 1009.40 1008.76 1008.28 1007.64 1007.20 1006.92 1006.68 1006.44 1006.04 1005.44 1004.80
1024.72 1025.00 1025.32 1025.68 1026.04 1026.24 1026.40 1026.44 1026.32 1026.28 1026.24 1026.16 1026.08 1026.04 1025.92 1025.64 1025.56 1025.48 1025.24 1025.04 1024.80 1024.48 1024.16 1023.88 1023.56 1023.28 1023.04 1022.68 1022.28 1021.92 1021.56 1021.40 1020.72 1019.84 1019.36 1018.56 1018.12 1017.48 1016.76 1016.28 1015.48 1014.68 1014.08 1013.40 1012.96 1012.84 1011.88 1010.76 1010.00 1009.32 1008.72 1008.24 1007.72 1007.16 1006.68 1006.20 1005.68 1005.24 1004.76 1004.28 1003.72 1003.36
1024.96 1025.28 1025.44 1025.72 1026.00 1026.20 1026.32 1026.32 1026.20 1026.12 1026.04 1025.92 1025.80 1025.68 1025.60 1025.48 1025.40 1025.20 1025.00 1024.72 1024.44 1024.16 1023.84 1023.56 1023.28 1022.92 1022.68 1022.32 1022.00 1021.64 1021.20 1020.56 1020.08 1019.48 1018.60 1018.08 1017.36 1016.68 1016.08 1015.48 1014.80 1014.12 1013.56 1013.12 1012.16 1011.56 1011.40 1010.36 1009.44 1008.88 1008.20 1007.44 1006.84 1006.28 1005.76 1005.28 1004.80 1004.36 1003.84 1003.36 1003.04 1002.72
1024.92 1025.16 1025.40 1025.72 1025.92 1026.08 1026.20 1026.16 1025.96 1025.92 1025.76 1025.64 1025.52 1025.40 1025.32 1025.32 1025.32 1025.04 1024.72 1024.52 1024.20 1023.84 1023.60 1023.32 1023.04 1022.64 1022.32 1021.96 1021.72 1021.36 1020.88 1020.32 1019.56 1018.56 1017.84 1017.36 1016.80 1016.20 1015.60 1014.96 1014.28 1013.68 1013.12 1012.48 1011.96 1011.20 1010.32 1009.88 1009.24 1008.40 1007.60 1006.88 1006.12 1005.52 1005.00 1004.52 1004.04 1003.60 1003.12 1002.48 1002.12 1001.84
1025.08 1025.36 1025.60 1025.72 1025.88 1026.00 1026.04 1025.96 1025.68 1025.64 1025.48 1025.32 1025.20 1025.08 1025.04 1025.00 1025.04 1024.84 1024.52 1024.28 1024.00 1023.68 1023.32 1023.04 1022.76 1022.40 1022.04 1021.68 1021.28 1020.92 1020.60 1020.08 1019.44 1018.68 1017.48 1016.28 1015.96 1015.64 1015.04 1014.40 1013.88 1013.36 1012.76 1012.12 1011.48 1010.92 1010.24 1009.32 1008.48 1007.72 1007.04 1006.36 1005.64 1005.04 1004.52 1003.92 1003.44 1002.96 1002.36 1001.92 1001.72 1001.56
1025.28 1025.48 1025.60 1025.76 1025.84 1025.92 1025.84 1025.68 1025.36 1025.32 1025.16 1025.00 1024.88 1024.80 1024.80 1024.80 1024.76 1024.64 1024.40 1024.04 1023.76 1023.44 1023.08 1022.80 1022.52 1022.12 1021.76 1021.44 1021.12 1020.76 1020.24 1019.76 1019.24 1018.60 1017.92 1017.16 1016.04 1014.72 1013.68 1013.28 1013.20 1012.96 1012.52 1011.84 1011.12 1010.40 1009.64 1008.88 1008.08 1007.36 1006.64 1005.92 1005.28 1004.68 1004.08 1003.56 1003.12 1002.68 1002.04 1001.72 1001.44 1001.04
1025.36 1025.52 1025.60 1025.68 1025.72 1025.72 1025.68 1025.36 1025.04 1025.00 1024.88 1024.72 1024.64 1024.60 1024.60 1024.56 1024.44 1024.28 1023.96 1023.76 1023.56 1023.32 1023.00 1022.64 1022.28 1021.96 1021.60 1021.20 1020.84 1020.36 1019.88 1019.28 1018.72 1018.20 1017.64 1017.12 1016.52 1015.92 1015.24 1014.00 1012.64 1011.84 1011.72 1011.28 1010.64 1009.96 1009.20 1008.52 1007.80 1007.00 1006.24 1005.52 1004.84 1004.20 1003.60 1003.12 1002.84 1002.48 1001.96 1001.36 1000.88 1000.44
1025.44 1025.52 1025.60 1025.68 1025.68 1025.64 1025.48 1025.04 1024.84 1024.76 1024.60 1024.52 1024.48 1024.44 1024.40 1024.32 1024.16 1024.00 1023.76 1023.40 1023.16 1022.96 1022.68 1022.36 1022.04 1021.72 1021.36 1020.96 1020.48 1019.92 1019.32 1018.84 1018.36 1017.84 1017.32 1016.72 1016.20 1015.72 1015.00 1014.04 1013.32 1012.56 1011.36 1010.72 1010.20 1009.76 1009.04 1008.20 1007.40 1006.56 1005.80 1005.12 1004.44 1003.80 1003.32 1003.12 1002.80 1002.40 1001.80 1001.16 1000.36 999.80
Wind_Speed
3 3 3 3 3 3 3 3 3 4 4 4 4 3 2 1 2 3 4 4 4 4 5 5 6 6 7 7 8 9 10 10 9 9 7 7 6 6 6 6 6 6 7 7 7 8 8 7 7 7 7 6 7 7 7 7 6 6 7 7 6 7
4 3 4 3 3 3 2 3 3 4 4 4 4 3 3 4 5 5 6 4 5 4 4 4 4 4 4 4 5 7 6 7 8 9 10 10 9 9 9 8 7 6 6 5 6 7 7 7 8 7 7 7 6 6 7 7 6 6 7 8 7 6
4 3 2 1 1 1 2 4 4 3 3 3 2 4 4 5 5 6 5 5 5 6 5 5 4 5 4 5 4 5 4 5 5 5 4 6 8 7 8 9 9 10 10 10 9 7 6 6 7 7 7 7 8 8 7 7 7 7 7 6 8 6
4 2 1 0 1 1 3 2 4 4 3 3 3 3 3 4 5 4 5 4 4 5 4 4 4 3 4 4 3 3 3 4 4 4 4 5 6 5 6 7 7 7 8 7 9 11 11 10 8 6 6 6 7 7 6 7 8 8 8 6 8 8
4 5 5 4 4 4 4 3 4 4 3 3 3 4 2 3 2 3 3 4 4 4 3 3 3 3 3 3 3 1 3 2 3 3 3 4 5 5 5 6 5 6 7 7 8 8 8 9 10 10 9 9 7 7 6 6 6 7 9 9 9 9
4 4 4 4 4 4 4 4 4 3 3 3 3 3 1 2 1 2 2 2 3 2 2 3 2 3 3 4 4 4 4 4 4 4 4 4 4 6 6 5 6 6 6 6 7 7 7 9 9 9 9 11 12 11 10 7 7 7 7 8 9 9
4 5 4 5 4 3 3 3 3 4 2 2 2 1 1 0 1 1 0 1 1 2 1 3 2 3 4 4 4 5 5 4 4 4 4 4 5 5 6 6 5 6 6 7 7 7 7 8 8 8 9 9 8 9 11 12 11 9 9 9 9 9
4 4 4 4 4 4 3 2 3 3 3 2 3 2 2 0 1 1 1 1 2 2 3 3 3 4 4 4 4 5 5 5 5 5 4 4 6 6 5 6 6 5 8 7 7 8 8 8 8 9 9 9 9 9 9 9 10 11 11 10 9 8
5 5 4 4 4 4 4 4 4 4 4 3 3 2 2 1 1 1 2 2 4 5 6 6 6 6 5 5 5 5 5 5 6 5 7 5 5 7 8 8 8 8 7 8 8 8 9 9 9 9 10 10 10 10 10 10 10 10 10 10 11 10
4 4 5 4 4 4 4 4 4 5 4 3 3 3 2 2 1 1 1 2 4 4 5 5 5 6 7 7 7 7 7 7 7 7 6 5 7 8 8 9 9 9 7 9 9 9 9 9 10 10 10 10 10 10 10 10 11 11 11 11 11 11
5 6 5 5 5 5 5 4 4 4 4 4 4 3 2 2 1 1 2 3 4 4 4 5 5 5 6 7 8 9 10 9 8 8 8 7 7 7 8 8 9 10 11 10 9 10 9 10 11 10 9 10 11 10 11 11 11 11 12 11 11 11
6 6 6 5 5 5 4 4 4 4 4 4 4 2 3 1 1 1 2 3 4 4 4 5 6 7 7 8 10 10 10 10 10 10 10 10 9 8 8 8 9 9 10 11 12 11 10 11 10 11 19 18 13 12 11 12 12 12 11 12 12 12
5 5 5 6 6 5 5 5 5 4 4 4 3 3 2 1 1 2 2 4 4 5 6 7 7 8 10 10 10 10 10 12 11 11 12 12 11 11 11 10 11 11 10 11 12 13 12 11 11 20 23 24 26 18 14 13 13 13 13 12 13 14
7 7 7 7 7 6 5 5 5 4 4 2 2 3 2 3 3 3 4 4 5 5 6 7 8 9 10 9 9 10 9 9 10 11 12 12 13 13 11 12 13 13 12 12 12 13 13 13 16 25 24 25 25 23 16 13 13 13 13 13 14 13
5 6 6 5 6 6 4 1 0 1 1 1 2 3 5 4 4 4 5 4 4 5 6 6 7 8 8 8 8 8 9 9 11 12 12 13 12 11 12 14 14 15 14 14 15 15 15 15 19 25 26 26 26 26 22 14 14 15 14 15 15 15
2 4 4 3 3 1 1 2 3 3 3 4 4 6 4 4 5 4 5 6 6 6 6 6 6 7 7 7 7 8 10 11 12 12 11 10 11 12 13 14 16 15 15 15 15 15 16 17 20 28 28 27 28 27 24 15 15 15 16 17 16 15
1 2 4 5 4 3 5 6 4 4 6 6 6 5 6 5 5 5 5 7 7 6 6 7 6 7 8 8 9 10 11 11 11 11 11 11 12 13 14 14 15 15 15 16 15 15 17 16 27 29 29 29 29 30 26 16 15 15 16 16 16 17
3 5 4 3 6 6 6 5 4 6 5 5 6 5 4 4 5 6 6 7 6 6 6 6 7 8 9 10 10 10 11 11 11 12 11 11 12 12 13 14 13 16 17 16 16 15 18 18 30 30 30 31 30 32 19 15 15 15 15 16 16 16
6 5 5 5 6 6 5 4 5 5 5 6 5 4 4 5 6 6 6 5 5 5 6 7 8 9 9 9 10 11 11 12 12 11 9 12 13 13 13 13 13 13 13 16 14 16 17 18 25 31 31 31 32 25 16 15 14 15 15 16 15 14
5 4 7 7 7 5 3 4 5 4 5 5 5 5 6 5 6 5 5 5 5 6 7 6 7 8 9 10 11 12 12 11 10 11 10 11 13 14 12 11 11 12 11 14 16 15 16 19 25 32 32 33 33 28 20 16 15 16 15 16 16 14
6 6 7 7 7 4 4 4 5 5 4 4 5 4 5 5 5 4 5 6 6 6 5 6 6 8 9 11 11 11 12 12 11 11 10 11 11 13 12 11 12 13 13 11 13 22 23 18 23 30 31 32 31 25 17 15 13 16 14 14 14 14
6 6 7 7 5 3 4 4 5 4 3 3 3 4 5 5 4 5 5 6 6 5 5 5 7 8 9 11 12 11 11 10 11 11 11 12 10 11 11 11 11 15 13 12 12 14 14 16 18 21 30 29 29 29 19 13 13 14 15 14 15 13
6 7 6 4 4 4 4 5 4 4 3 3 4 5 4 3 4 5 5 6 6 5 6 6 6 10 10 9 11 11 10 9 11 12 11 12 12 12 12 13 13 14 14 11 11 11 13 12 16 18 27 28 28 29 25 14 14 14 15 16 17 16
6 5 5 4 5 5 5 4 3 2 3 4 5 4 3 4 4 5 4 5 6 6 6 7 7 8 9 9 9 11 11 10 10 11 11 11 12 14 15 13 12 12 13 11 10 10 12 14 22 18 24 27 29 28 29 18 14 15 14 16 15 15
5 5 4 3 4 4 3 4 3 3 3 4 5 3 3 4 5 6 5 6 7 7 7 8 8 9 7 9 10 11 12 11 10 11 10 12 13 14 14 14 12 12 11 11 8 8 10 10 13 23 21 26 28 29 28 29 24 28 19 15 16 16
4 4 3 3 3 3 3 3 3 4 4 6 3 4 4 4 4 5 6 7 7 8 8 8 8 8 8 9 10 10 11 11 10 10 9 11 11 11 12 10 11 12 13 13 12 9 9 10 10 17 24 23 29 28 30 30 31 31 20 18 17 17
3 3 2 2 2 2 2 1 2 4 6 5 3 4 5 5 5 6 7 8 8 8 8 8 8 8 8 8 8 9 9 10 9 11 10 10 11 11 11 12 10 11 11 13 12 12 10 10 11 12 17 27 29 31 31 32 33 32 32 22 16 17
3 2 1 0 0 1 0 0 1 5 6 4 4 4 5 5 6 7 8 8 8 9 9 10 9 7 8 8 7 7 8 10 11 10 11 11 11 11 12 12 10 10 11 11 11 12 13 12 10 13 13 15 20 22 29 33 33 33 33 31 25 32
1 1 0 1 0 0 1 1 3 4 4 5 5 5 5 5 6 8 8 9 9 9 8 9 9 9 7 7 7 7 8 9 9 10 11 11 11 12 12 12 12 13 13 13 12 14 13 11 9 11 12 11 12 13 15 17 18 25 28 22 18 21
0 1 1 1 1 1 1 2 4 4 4 4 5 4 4 5 6 8 9 10 9 9 8 9 9 10 9 8 7 9 9 9 9 10 11 11 12 12 13 12 13 14 14 13 13 14 13 12 11 10 11 11 12 12 12 13 14 13 12 14 15 16
1 1 1 3 1 2 2 4 5 4 5 5 4 4 5 6 6 7 9 9 8 9 8 8 8 9 9 10 8 7 8 11 11 11 12 12 10 10 12 13 13 13 13 13 13 15 15 15 14 12 18 21 26 22 16 12 10 9 10 15 22 18
1 1 2 3 2 2 3 4 5 5 5 4 4 4 5 6 7 7 9 8 8 8 8 8 8 8 9 9 10 10 10 12 21 17 13 12 20 28 29 25 17 17 15 15 13 12 16 16 17 30 36 33 32 32 32 30 31 29 23 26 33 25
1 1 2 3 2 3 4 5 6 5 5 5 5 4 5 5 7 7 8 8 8 9 10 9 9 9 9 9 10 10 11 11 11 20 26 24 25 26 28 28 30 32 31 22 17 18 30 33 36 35 34 34 33 33 32 31 30 31 31 31 22 15
1 2 4 3 3 4 4 5 7 5 5 4 4 4 4 4 5 8 9 9 9 10 9 9 10 10 9 9 9 10 11 11 12 13 18 24 24 26 27 28 29 30 29 31 28 23 17 25 31 34 33 34 34 31 31 30 31 31 31 28 29 16
2 2 3 3 4 4 4 6 7 5 5 5 4 4 4 5 6 8 9 9 9 9 10 10 9 9 9 10 11 11 10 11 11 13 15 17 23 26 26 27 28 28 29 30 30 31 28 29 31 35 34 32 32 31 30 31 34 33 32 32 18 11
1 2 3 4 4 5 5 7 8 5 5 4 4 4 4 6 6 7 8 8 10 10 10 9 9 9 9 9 10 10 11 11 11 12 13 14 14 18 21 22 24 25 27 28 30 30 30 30 32 33 33 32 31 31 30 28 23 29 31 25 15 12
2 3 4 4 4 4 5 8 8 5 5 4 4 4 5 6 7 7 9 13 11 7 9 9 9 9 10 10 10 11 11 11 11 11 12 12 13 13 14 16 18 22 27 24 23 26 30 29 30 30 30 32 31 30 30 28 16 14 14 15 12 12
2 4 4 4 4 5 6 9 7 5 5 4 4 5 5 6 7 7 8 8 9 8 8 8 9 9 9 10 11 10 11 11 11 11 11 12 12 12 13 14 13 14 20 31 28 29 28 29 30 30 30 30 30 29 28 14 10 11 10 11 12 11
Wind_Direction
135 122 112 82 88 96 109 96 76 57 52 52 67 49 41 20 15 33 31 31 42 49 39 35 26 22 22 14 15 12 12 6 2 3 354 355 359 358 358 353 347 345 339 343 336 337 338 335 333 330 327 323 316 308 301 298 296 291 287 284 283 275
155 136 120 113 114 117 131 115 80 72 60 55 37 24 15 18 21 24 29 31 35 14 23 18 26 26 28 22 25 16 8 1 359 353 357 351 346 352 350 350 347 343 340 334 330 326 330 331 328 332 327 324 312 302 300 289 290 287 282 283 279 276
159 141 139 152 164 138 134 127 131 142 104 85 72 61 21 22 17 19 15 21 24 31 16 6 8 7 11 17 13 20 356 350 345 342 336 341 346 345 343 343 341 339 339 338 337 334 326 324 321 323 325 324 321 315 303 298 295 287 283 281 282 279
168 162 206 287 92 141 121 162 125 123 125 132 94 66 48 46 15 25 7 14 16 26 8 7 11 3 18 18 360 6 345 334 332 322 334 341 320 333 326 328 328 331 331 334 330 332 333 331 328 319 319 311 309 305 307 307 303 296 288 280 277 277
179 189 192 190 172 174 168 160 142 152 135 112 108 89 38 71 32 31 32 30 22 7 356 11 6 347 353 348 318 305 301 285 291 303 309 300 309 310 309 305 313 316 323 324 324 324 323 321 322 324 324 316 306 298 295 289 284 280 283 284 278 275
176 156 161 164 161 149 160 162 153 146 137 135 99 84 72 30 39 23 31 17 5 351 4 346 322 357 332 335 305 293 287 290 297 299 309 293 301 305 296 300 299 302 303 306 305 311 311 313 313 313 313 314 317 316 307 295 286 282 273 268 268 270
151 166 164 156 165 157 151 146 142 130 135 119 128 158 198 152 191 77 183 111 15 344 349 323 316 335 325 320 316 309 301 294 293 291 287 293 295 292 297 297 297 294 292 290 289 290 292 292 297 300 300 298 297 298 303 306 305 294 282 275 274 271
162 146 152 163 158 151 142 141 139 145 144 156 187 181 196 247 143 50 47 28 24 350 345 315 319 313 306 302 298 296 293 292 297 298 293 291 300 301 297 293 292 283 284 281 279 279 279 281 280 281 283 285 288 289 287 285 284 290 291 286 274 268
158 164 173 172 176 170 168 155 170 171 173 180 200 200 185 194 122 40 50 2 16 357 346 343 336 329 322 318 311 308 307 302 298 299 297 300 298 301 305 305 304 300 289 286 282 278 277 276 272 271 271 272 272 275 279 281 281 278 278 278 278 273
201 191 188 194 192 194 191 190 184 180 180 197 215 208 190 183 152 68 24 15 353 350 329 325 318 321 321 320 322 320 316 312 309 303 296 298 298 297 297 300 298 294 292 289 289 287 286 283 280 274 268 265 263 264 264 265 269 271 271 274 273 274
210 210 207 210 202 199 208 204 214 208 207 208 203 192 215 189 176 317 341 347 338 318 316 314 314 308 311 315 316 318 316 315 312 308 304 300 294 290 287 287 290 293 293 288 284 287 284 280 278 278 274 275 272 265 266 266 262 260 261 261 262 263
216 218 213 221 214 217 221 227 231 228 219 238 241 214 248 162 266 272 318 321 303 309 316 316 313 312 311 315 314 312 314 312 313 311 309 306 298 291 289 286 284 283 284 289 290 286 286 283 280 271 273 273 272 273 271 269 267 264 261 262 262 258
235 236 228 227 222 226 224 227 235 244 253 248 260 252 269 73 325 343 343 330 330 335 333 329 323 320 318 315 316 313 313 312 312 312 310 308 306 301 296 289 287 286 283 282 284 286 283 281 279 280 283 283 281 279 276 274 272 268 267 265 265 268
232 229 226 223 225 226 226 231 235 237 253 291 293 302 12 38 32 17 352 336 337 332 330 324 318 315 309 313 309 307 307 309 310 308 307 305 303 301 298 295 292 290 290 288 286 284 282 281 277 281 284 284 284 282 279 277 275 271 267 266 266 266
249 242 237 228 226 223 240 238 89 279 256 349 340 53 50 35 25 4 347 335 334 327 326 321 315 309 310 311 312 311 314 312 308 304 302 299 297 299 297 295 297 294 293 291 289 288 288 286 284 286 287 287 287 286 285 281 279 277 273 270 267 267
238 241 247 292 350 31 105 107 78 66 74 71 53 44 28 25 0 4 340 334 331 331 326 321 318 311 312 318 317 317 312 310 303 301 301 302 301 297 296 295 293 293 291 290 290 289 288 285 286 289 291 291 292 292 291 285 282 279 275 274 271 269
334 8 53 78 82 49 50 41 41 46 38 30 38 34 29 12 1 342 335 327 326 332 329 327 324 321 319 319 315 311 306 303 303 303 303 304 299 298 297 297 297 294 292 292 292 291 289 287 289 292 293 295 296 296 296 291 286 281 279 277 276 274
107 108 109 86 69 59 57 46 31 50 32 35 39 22 15 357 338 330 330 326 325 326 332 337 327 320 318 314 311 308 304 303 300 301 306 303 298 296 296 293 294 292 293 293 293 294 292 291 293 295 298 298 298 297 295 290 285 283 280 277 277 276
128 124 106 82 74 70 51 37 44 43 29 19 7 5 350 346 331 322 319 310 324 335 340 334 324 317 314 313 309 305 302 304 304 303 308 299 295 294 293 292 290 292 293 295 295 295 294 293 295 298 299 299 299 300 295 290 284 280 278 276 275 275
115 111 108 101 81 76 65 48 45 40 24 8 356 354 337 329 308 307 312 323 333 332 332 329 323 315 312 310 304 302 301 302 299 297 301 295 296 293 290 293 292 289 288 291 294 296 295 295 298 301 303 303 302 300 298 297 293 287 281 280 277 278
124 113 96 91 83 63 66 55 48 36 16 357 343 333 311 303 300 322 329 325 329 329 330 322 315 309 306 302 299 300 299 299 297 295 295 289 288 287 290 288 286 285 283 283 288 295 296 297 299 301 302 301 299 298 292 289 282 282 278 279 279 274
106 84 85 86 90 88 68 59 48 31 360 331 315 304 294 296 323 333 326 320 321 319 311 308 303 300 300 297 295 293 290 292 293 293 293 290 285 284 283 281 279 281 282 285 286 285 286 289 291 295 300 301 300 300 298 291 288 284 286 284 283 281
96 102 100 96 88 74 60 51 43 7 336 308 298 284 294 323 331 320 315 313 305 301 300 299 299 297 292 285 288 289 289 288 288 291 290 289 289 283 283 281 280 279 279 280 276 275 278 280 288 295 300 301 301 300 299 290 285 286 286 285 282 276
94 96 84 75 75 70 59 53 25 330 313 304 287 287 324 328 314 311 306 302 300 296 298 299 294 284 284 287 285 287 286 284 282 284 286 286 286 287 285 283 281 280 282 281 273 272 278 284 290 295 298 299 299 298 296 294 285 284 281 279 272 272
91 87 87 78 76 66 63 53 3 308 296 288 289 319 321 311 310 304 302 300 300 305 304 297 287 286 284 284 283 284 288 289 288 286 286 285 286 285 284 286 284 284 284 284 275 275 278 277 283 291 293 295 296 295 295 293 291 291 290 288 285 285
116 110 99 100 83 78 69 57 341 304 296 289 308 317 307 302 300 300 301 303 306 308 297 288 285 281 281 281 284 284 284 289 290 289 289 287 287 288 288 284 286 287 288 290 290 281 276 275 273 283 288 291 292 292 292 292 291 291 289 285 283 287
118 115 99 99 89 88 85 68 330 300 293 291 322 307 305 302 303 306 306 308 306 297 290 288 286 285 280 278 280 287 289 290 294 295 292 290 289 287 286 286 286 286 288 289 288 287 280 272 274 276 281 284 287 289 289 288 287 287 286 284 279 275
107 105 118 358 129 104 99 10 292 291 284 299 303 299 301 308 310 311 310 306 298 294 296 296 291 281 280 281 275 274 285 292 298 294 293 291 288 289 288 288 288 285 286 284 281 281 282 277 273 274 272 270 274 275 278 279 281 281 280 279 279 280
74 39 337 251 209 132 273 278 267 262 285 292 292 297 303 307 305 306 307 302 300 297 295 295 299 300 295 288 287 285 290 294 289 287 288 288 289 289 288 288 290 289 286 282 282 282 282 277 269 271 270 265 264 259 260 265 266 269 273 277 275 274
101 278 274 274 242 285 278 276 270 270 275 282 286 292 299 300 303 306 304 300 299 297 298 297 295 297 301 296 298 303 300 285 279 281 283 287 287 289 287 286 287 286 284 284 285 287 286 286 283 279 281 278 268 265 264 256 256 257 246 256 264 260
202 220 240 271 272 282 287 277 277 279 282 286 293 294 301 300 305 302 298 297 299 297 297 296 299 300 298 299 296 285 282 290 286 278 273 266 261 266 274 278 280 281 285 288 293 297 295 295 293 290 294 293 297 298 295 284 269 247 242 239 247 257
174 209 259 272 274 275 280 282 281 280 279 283 282 289 299 305 309 306 300 300 299 299 302 303 302 300 298 297 300 299 286 272 285 288 288 288 289 291 292 293 292 293 295 295 289 287 293 297 295 300 303 303 300 296 293 291 290 289 288 288 288 289
183 236 265 266 264 274 274 280 281 281 279 274 280 288 294 303 306 302 300 304 302 304 306 306 303 301 298 297 298 295 295 296 285 289 293 293 296 297 298 298 297 299 300 299 298 296 296 296 299 301 299 297 297 298 299 298 295 294 293 292 292 286
239 244 256 262 269 275 278 281 282 279 277 276 278 280 288 295 295 300 301 302 301 305 304 302 300 300 300 300 296 295 297 296 300 298 297 301 304 302 302 301 302 302 302 302 302 301 300 299 299 298 297 300 304 305 305 303 300 299 297 294 293 290
223 237 253 269 275 281 281 280 280 277 275 278 281 289 295 294 294 295 298 299 302 302 302 302 301 300 301 302 303 300 298 299 301 304 309 309 308 307 306 305 304 305 305 305 304 304 302 303 303 303 304 305 307 310 309 306 306 307 305 303 300 283
224 261 271 278 276 276 279 277 279 279 278 281 285 290 288 290 288 287 292 300 303 304 302 303 299 301 301 299 298 296 296 294 295 297 300 305 311 315 313 309 307 307 309 307 307 307 308 308 309 309 309 308 308 309 309 308 309 309 306 303 295 286
263 274 274 277 283 283 280 276 278 277 278 285 290 294 293 289 293 292 293 294 297 291 294 295 297 299 298 299 298 296 294 293 295 298 299 302 304 306 306 309 313 312 312 311 310 309 311 312 312 311 309 309 309 309 310 313 312 306 302 301 291 281
273 272 275 277 274 274 274 275 278 279 280 284 288 291 291 292 296 298 297 298 298 296 292 294 294 295 296 296 293 292 293 296 298 300 299 299 298 298 299 299 300 301 305 309 311 312 313 315 316 314 312 309 309 309 314 312 300 292 285 281 282 280